| time (UTC) | temp C | wind direction | speed KPH | gust KPH | rain 1hr cm | rain 24hr cm | rain mn cm | humidity % | barometer mb |
| 20260506091517 | 10 | 0.0 | 0.0 | 0.00 | 0.00 | 0.00 | 74 | 1022.4 | |
| 20260506090517 | 10 | 0.0 | 0.0 | 0.00 | 0.00 | 0.00 | 74 | 1022.5 | |
| 20260506085517 | 10 | 0.0 | 0.0 | 0.00 | 0.00 | 0.00 | 74 | 1022.5 | |
| 20260506084517 | 10 | 0.0 | 0.0 | 0.00 | 0.00 | 0.00 | 74 | 1022.5 | |
| 20260506083517 | 10 | 0.0 | 0.0 | 0.00 | 0.00 | 0.00 | 74 | 1022.6 | |
| 20260506082517 | 10 | 0.0 | 0.0 | 0.00 | 0.00 | 0.00 | 74 | 1022.5 | |
| 20260506081517 | 10 | 0.0 | 0.0 | 0.00 | 0.00 | 0.00 | 74 | 1022.6 | |
| 20260506080517 | 10 | 0.0 | 0.0 | 0.00 | 0.00 | 0.00 | 74 | 1022.8 | |
| 20260506072517 | 10 | 0.0 | 0.0 | 0.00 | 0.00 | 0.00 | 74 | 1022.5 | |
| 20260506071517 | 10 | 0.0 | 0.0 | 0.00 | 0.00 | 0.00 | 75 | 1022.4 | |
| 20260506070519 | 10 | 0.0 | 0.0 | 0.00 | 0.03 | 0.00 | 75 | 1022.2 | |
| 20260506061517 | 10 | 0.0 | 0.0 | 0.00 | 0.08 | 0.03 | 75 | 1021.9 | |
| 20260506060518 | 10 | 0.0 | 0.0 | 0.00 | 0.08 | 0.03 | 75 | 1021.8 | |
| 20260506050517 | 10 | 0.0 | 0.0 | 0.00 | 0.36 | 0.03 | 76 | 1021.0 | |
| 20260506044517 | 10 | 0.0 | 0.0 | 0.00 | 0.53 | 0.03 | 77 | 1020.9 | |
| 20260506043517 | 10 | 0.0 | 0.0 | 0.00 | 0.58 | 0.03 | 77 | 1020.8 | |
| 20260506042539 | 10 | 0.0 | 0.0 | 0.00 | 0.58 | 0.03 | 77 | 1020.9 | |
| 20260506041517 | 10 | 0.0 | 0.0 | 0.00 | 0.58 | 0.03 | 78 | 1020.8 | |
| 20260506040517 | 10 | 0.0 | 0.0 | 0.00 | 0.58 | 0.03 | 78 | 1020.5 | |
| 20260506035537 | 10 | 0.0 | 0.0 | 0.00 | 0.61 | 0.03 | 78 | 1020.3 | |
| 20260506034517 | 10 | 0.0 | 0.0 | 0.00 | 0.64 | 0.03 | 79 | 1020.1 | |
| 20260506033517 | 10 | 0.0 | 0.0 | 0.00 | 0.71 | 0.03 | 79 | 1020.1 | |
| 20260506032517 | 10 | 0.0 | 0.0 | 0.00 | 0.89 | 0.03 | 80 | 1020.2 | |
| 20260506031517 | 10 | 0.0 | 0.0 | 0.00 | 1.04 | 0.03 | 80 | 1020.1 | |
| 20260506030518 | 10 | 0.0 | 0.0 | 0.00 | 1.19 | 0.03 | 81 | 1019.9 | |
| 20260506025517 | 10 | 0.0 | 0.0 | 0.00 | 1.27 | 0.03 | 82 | 1019.7 | |
| 20260506024537 | 10 | 0.0 | 0.0 | 0.00 | 1.42 | 0.03 | 81 | 1019.5 | |
| 20260506023519 | 10 | 0.0 | 0.0 | 0.00 | 1.50 | 0.03 | 82 | 1019.4 | |
| 20260506022517 | 11 | 0.0 | 0.0 | 0.00 | 1.57 | 0.03 | 83 | 1019.4 | |
| 20260506021517 | 11 | 0.0 | 0.0 | 0.00 | 1.65 | 0.03 | 83 | 1019.5 | |
| 20260506020538 | 11 | 0.0 | 0.0 | 0.00 | 1.73 | 0.03 | 84 | 1019.3 | |
| 20260506015517 | 11 | 0.0 | 0.0 | 0.00 | 1.80 | 0.03 | 83 | 1019.2 | |
| 20260506014518 | 11 | 0.0 | 0.0 | 0.00 | 1.85 | 0.03 | 81 | 1019.0 | |
| 20260506013517 | 11 | 0.0 | 0.0 | 0.00 | 1.93 | 0.03 | 82 | 1019.3 | |
| 20260506012517 | 11 | 0.0 | 0.0 | 0.00 | 2.03 | 0.03 | 82 | 1019.4 | |
| 20260506011518 | 11 | 0.0 | 0.0 | 0.00 | 2.11 | 0.03 | 82 | 1019.3 | |
| 20260506010517 | 11 | 0.0 | 0.0 | 0.00 | 2.18 | 0.03 | 81 | 1019.2 | |
| 20260506005518 | 11 | 0.0 | 0.0 | 0.00 | 2.24 | 0.03 | 81 | 1019.0 | |
| 20260506004517 | 11 | 0.0 | 0.0 | 0.00 | 2.34 | 0.03 | 81 | 1019.1 | |
| 20260506003516 | 10 | 0.0 | 0.0 | 0.00 | 2.41 | 0.03 | 81 | 1019.0 | |
| 20260506002537 | 10 | 0.0 | 0.0 | 0.00 | 2.49 | 0.03 | 82 | 1018.8 | |
| 20260506001517 | 10 | 0.0 | 0.0 | 0.00 | 2.54 | 0.03 | 82 | 1018.8 | |
| 20260506000517 | 10 | 0.0 | 0.0 | 0.00 | 2.59 | 0.03 | 82 | 1018.8 | |
| 20260505235517 | 10 | 0.0 | 0.0 | 0.00 | 2.64 | 0.03 | 83 | 1018.8 | |
| 20260505234516 | 10 | 0.0 | 0.0 | 0.00 | 2.69 | 0.03 | 84 | 1018.7 | |
| 20260505233516 | 10 | 0.0 | 0.0 | 0.00 | 2.74 | 0.03 | 83 | 1018.7 | |
| 20260505232517 | 10 | 0.0 | 0.0 | 0.00 | 2.77 | 0.03 | 83 | 1018.8 | |
| 20260505231517 | 11 | 0.0 | 0.0 | 0.00 | 2.77 | 0.03 | 82 | 1018.7 | |
| 20260505230517 | 10 | 0.0 | 0.0 | 0.00 | 2.82 | 0.03 | 83 | 1018.8 | |
| 20260505225517 | 10 | 0.0 | 0.0 | 0.00 | 2.87 | 0.03 | 82 | 1018.7 | |
| 20260505224517 | 10 | 0.0 | 0.0 | 0.00 | 2.92 | 0.03 | 84 | 1018.7 | |
| 20260505223516 | 10 | 0.0 | 0.0 | 0.00 | 2.95 | 0.03 | 84 | 1018.8 | |
| 20260505222525 | 10 | 0.0 | 0.0 | 0.00 | 3.00 | 0.03 | 85 | 1018.8 | |
| 20260505221517 | 10 | 0.0 | 0.0 | 0.00 | 3.02 | 0.03 | 85 | 1018.8 | |
| 20260505220705 | 10 | 0.0 | 0.0 | 0.00 | 3.07 | 0.03 | 85 | 1018.8 | |
| 20260505215517 | 11 | 0.0 | 0.0 | 0.00 | 3.10 | 0.03 | 86 | 1018.9 | |
| 20260505214516 | 10 | 0.0 | 0.0 | 0.00 | 3.12 | 0.03 | 87 | 1019.0 | |
| 20260505213516 | 10 | 0.0 | 0.0 | 0.00 | 3.12 | 0.03 | 86 | 1019.0 | |
| 20260505212517 | 11 | 0.0 | 0.0 | 0.00 | 3.15 | 0.03 | 86 | 1019.2 | |
| 20260505211557 | 11 | 0.0 | 0.0 | 0.00 | 3.20 | 0.03 | 86 | 1019.1 | |
| 20260505210517 | 10 | 0.0 | 0.0 | 0.00 | 3.25 | 0.03 | 87 | 1018.9 | |
| 20260505205537 | 11 | 0.0 | 0.0 | 0.00 | 3.25 | 0.03 | 87 | 1019.0 | |
| 20260505204517 | 11 | 0.0 | 0.0 | 0.00 | 3.28 | 0.03 | 87 | 1019.0 | |
| 20260505203516 | 11 | 0.0 | 0.0 | 0.00 | 3.28 | 0.03 | 87 | 1019.0 | |
| 20260505202518 | 11 | 0.0 | 0.0 | 0.00 | 3.28 | 0.03 | 87 | 1018.9 | |
| 20260505201518 | 11 | 0.0 | 0.0 | 0.00 | 3.30 | 0.03 | 87 | 1018.9 | |
| 20260505200517 | 11 | 0.0 | 0.0 | 0.00 | 3.30 | 0.03 | 87 | 1019.1 | |
| 20260505195516 | 11 | 0.0 | 0.0 | 0.00 | 3.33 | 0.03 | 87 | 1019.0 | |
| 20260505194537 | 11 | 0.0 | 0.0 | 0.00 | 3.33 | 0.03 | 87 | 1019.1 | |
| 20260505193516 | 11 | 0.0 | 0.0 | 0.00 | 3.33 | 0.03 | 86 | 1019.1 | |
| 20260505192517 | 11 | 0.0 | 0.0 | 0.00 | 3.35 | 0.03 | 87 | 1019.0 | |
| 20260505191518 | 11 | 0.0 | 0.0 | 0.00 | 3.35 | 0.03 | 87 | 1019.0 | |
| 20260505190517 | 11 | 0.0 | 0.0 | 0.00 | 3.35 | 0.03 | 87 | 1018.9 | |
| 20260505185516 | 11 | 0.0 | 1.6 | 0.00 | 3.35 | 0.03 | 87 | 1018.9 | |
| 20260505184518 | 11 | 0.0 | 0.0 | 0.00 | 3.35 | 0.03 | 87 | 1018.9 | |
| 20260505183517 | 11 | 0.0 | 0.0 | 0.00 | 3.35 | 0.03 | 87 | 1018.9 | |
| 20260505182516 | 11 | 0.0 | 0.0 | 0.00 | 3.35 | 0.03 | 87 | 1018.9 | |
| 20260505181613 | 11 | 0.0 | 0.0 | 0.00 | 3.35 | 0.03 | 87 | 1018.8 | |
| 20260505180516 | 11 | 0.0 | 0.0 | 0.00 | 3.35 | 0.03 | 87 | 1018.8 | |
| 20260505175517 | 10 | 0.0 | 0.0 | 0.00 | 3.35 | 0.03 | 87 | 1018.5 | |
| 20260505174539 | 10 | 0.0 | 0.0 | 0.00 | 3.35 | 0.03 | 87 | 1018.5 | |
| 20260505173517 | 10 | 0.0 | 0.0 | 0.00 | 3.35 | 0.03 | 87 | 1018.4 | |
| 20260505172516 | 10 | 0.0 | 0.0 | 0.00 | 3.35 | 0.03 | 86 | 1018.4 | |
| 20260505171516 | 10 | 0.0 | 0.0 | 0.00 | 3.35 | 0.03 | 85 | 1018.3 | |
| 20260505170516 | 10 | 0.0 | 0.0 | 0.00 | 3.35 | 0.03 | 83 | 1018.3 | |
| 20260505165516 | 10 | 0.0 | 0.0 | 0.00 | 3.35 | 0.03 | 85 | 1018.4 | |
| 20260505164653 | 10 | 0.0 | 0.0 | 0.00 | 3.35 | 0.03 | 82 | 1018.3 | |
| 20260505163518 | 10 | 0.0 | 1.6 | 0.00 | 3.35 | 0.03 | 81 | 1018.3 | |
| 20260505162519 | 10 | 0.0 | 1.6 | 0.00 | 3.35 | 0.03 | 78 | 1018.2 | |
| 20260505161518 | 10 | 0.0 | 0.0 | 0.00 | 3.35 | 0.03 | 77 | 1017.9 | |
| 20260505160538 | 9 | 0.0 | 1.6 | 0.00 | 3.35 | 0.03 | 77 | 1017.9 | |
| 20260505152518 | 8 | 0.0 | 0.0 | 0.00 | 3.35 | 0.03 | 77 | 1017.9 | |
| 20260505151539 | 8 | 0.0 | 0.0 | 0.00 | 3.35 | 0.03 | 77 | 1017.6 | |
| 20260505150519 | 8 | 0.0 | 0.0 | 0.00 | 3.35 | 0.03 | 77 | 1017.5 | |
| 20260505140518 | 7 | 0.0 | 0.0 | 0.00 | 3.35 | 0.03 | 77 | 1017.0 | |
| 20260505124518 | 7 | 0.0 | 0.0 | 0.00 | 3.35 | 0.03 | 77 | 1016.8 | |
| 20260505123518 | 7 | 0.0 | 0.0 | 0.00 | 3.35 | 0.03 | 77 | 1016.6 | |
| 20260505122518 | 7 | 0.0 | 0.0 | 0.00 | 3.35 | 0.03 | 77 | 1016.6 | |
| 20260505121517 | 7 | 0.0 | 0.0 | 0.00 | 3.35 | 0.03 | 77 | 1016.7 | |
| 20260505120518 | 7 | 0.0 | 0.0 | 0.00 | 3.35 | 0.03 | 77 | 1016.8 | |
| 20260505115517 | 7 | 0.0 | 0.0 | 0.00 | 3.35 | 0.03 | 77 | 1016.6 | |
| 20260505114537 | 7 | 0.0 | 0.0 | 0.00 | 3.35 | 0.03 | 77 | 1016.7 | |
| 20260505113518 | 7 | 0.0 | 0.0 | 0.00 | 3.35 | 0.03 | 77 | 1016.8 | |
| 20260505112517 | 7 | 0.0 | 0.0 | 0.00 | 3.35 | 0.03 | 77 | 1016.9 | |
| 20260505111517 | 7 | 0.0 | 0.0 | 0.00 | 3.35 | 0.03 | 77 | 1016.9 | |
| 20260505110518 | 7 | 0.0 | 0.0 | 0.00 | 3.35 | 0.03 | 77 | 1016.9 | |
| 20260505101520 | 7 | 0.0 | 0.0 | 0.00 | 3.35 | 0.03 | 77 | 1017.0 | |
| 20260505100517 | 7 | 0.0 | 0.0 | 0.00 | 3.35 | 0.03 | 77 | 1017.1 | |
| 20260505095517 | 7 | 0.0 | 0.0 | 0.00 | 3.35 | 0.03 | 77 | 1017.3 | |
| 20260505094518 | 7 | 0.0 | 0.0 | 0.00 | 3.35 | 0.03 | 77 | 1017.1 | |
| 20260505093517 | 7 | 0.0 | 0.0 | 0.00 | 3.35 | 0.03 | 77 | 1017.5 | |
| 20260505092537 | 7 | 0.0 | 0.0 | 0.00 | 3.35 | 0.03 | 77 | 1017.4 |